Weather History for KCGE - February, 2014

Change the Weather History Date:

Sunday, February 2, 2014

  Actual Average (KESN) Record (KESN)
Temperature  
Mean Temperature 48 °F -  
Max Temperature 60 °F 45 °F 66 °F (1967)
Min Temperature 35 °F 28 °F 0 °F (1961)
Degree Days  
Heating Degree Days 18    
Moisture  
Dew Point 36 °F    
Average Humidity 73    
Maximum Humidity 93    
Minimum Humidity 36    
Precipitation  
Precipitation 0.00 in - - ()
Sea Level Pressure  
Sea Level Pressure 29.99 in    
Wind  
Wind Speed 4 mph (SSE)    
Max Wind Speed 9 mph    
Max Gust Speed -    
Visibility 9 miles    
Events      
Averages and records for this station are not official NWS values.
T = Trace of Precipitation, MM = Missing Value Source: NWS Daily Summary

Daily Weather History Graph

Daily Weather History Graph

Search for Another Location

Airport or City:

Trip Planner

Search our weather history database for the weather conditions in past years. The results will help you decide how hot, cold, wet, or windy it might be!

Date:

Astronomy

Feb. 02, 2014 Rise Set
Actual Time 7:08 AM EST 5:27 PM EST
Civil Twilight 6:40 AM EST 5:55 PM EST
Nautical Twilight 6:09 AM EST 6:27 PM EST
Astronomical Twilight 5:38 AM EST 6:58 PM EST
Moon 8:36 AM EST (2/2) 9:05 PM EST (2/2)
Length of Visible Light 11h 14m
Length of Day
10h 18m
Waxing Crescent, 11% of the Moon is Illuminated
Feb 2
Waxing Crescent
Feb 6
First Quarter
Feb 14
Full
Feb 22
Last Quarter
Mar 1
New

Hourly Weather History & Observations

Time (EST) Temp. Windchill Dew Point Humidity Pressure Visibility Wind Dir Wind Speed Gust Speed Precip Events Conditions
12:09 AM 42.8 °F 41.1 °F 37.4 °F 81% 30.02 in 10.0 mi SSE 3.5 mph - N/A   Mostly Cloudy
12:29 AM 42.8 °F 39.3 °F 37.4 °F 81% 30.02 in 10.0 mi SSE 5.8 mph - N/A   Overcast
12:49 AM 42.8 °F 39.3 °F 37.4 °F 81% 30.01 in 10.0 mi South 5.8 mph - N/A   Overcast
1:09 AM 42.8 °F 40.1 °F 37.4 °F 81% 30.00 in 10.0 mi South 4.6 mph - N/A   Overcast
1:29 AM 42.8 °F 40.1 °F 37.4 °F 81% 29.99 in 10.0 mi SSE 4.6 mph - N/A   Mostly Cloudy
1:49 AM 42.8 °F 41.1 °F 37.4 °F 81% 29.99 in 10.0 mi SSE 3.5 mph - N/A   Overcast
2:09 AM 42.8 °F 40.1 °F 37.4 °F 81% 29.99 in 10.0 mi South 4.6 mph - N/A   Overcast
2:29 AM 42.8 °F 40.1 °F 37.4 °F 81% 29.98 in 10.0 mi South 4.6 mph - N/A   Overcast
2:49 AM 42.8 °F 41.1 °F 37.4 °F 81% 29.98 in 10.0 mi SSE 3.5 mph - N/A   Overcast
3:09 AM 41.0 °F 37.1 °F 37.4 °F 87% 29.97 in 10.0 mi SSE 5.8 mph - N/A   Overcast
3:29 AM 41.0 °F 38.0 °F 37.4 °F 87% 29.97 in 10.0 mi SSE 4.6 mph - N/A   Overcast
3:49 AM 41.0 °F 38.0 °F 37.4 °F 87% 29.96 in 7.0 mi SSE 4.6 mph - N/A   Overcast
4:09 AM 41.0 °F 38.0 °F 37.4 °F 87% 29.96 in 10.0 mi South 4.6 mph - N/A   Scattered Clouds
4:29 AM 37.4 °F - 35.6 °F 93% 29.96 in 7.0 mi Calm Calm - N/A   Clear
4:49 AM 37.4 °F 33.8 °F 35.6 °F 93% 29.96 in 5.0 mi SSE 4.6 mph - N/A   Clear
5:09 AM 37.4 °F - 35.6 °F 93% 29.96 in 5.0 mi Calm Calm - N/A   Clear
5:29 AM 37.4 °F 33.8 °F 33.8 °F 87% 29.97 in 3.0 mi SE 4.6 mph - N/A   Clear
5:49 AM 37.4 °F 32.1 °F 33.8 °F 87% 29.97 in 3.0 mi SE 6.9 mph - N/A   Clear
6:09 AM 35.6 °F 31.7 °F 33.8 °F 93% 29.98 in 4.0 mi SSE 4.6 mph - N/A   Clear
6:30 AM 35.6 °F 29.9 °F 33.8 °F 93% 29.98 in 5.0 mi SSE 6.9 mph - N/A   Clear
6:50 AM 35.6 °F 31.7 °F 33.8 °F 93% 29.98 in 5.0 mi SSE 4.6 mph - N/A   Clear
7:10 AM 35.6 °F 30.7 °F 33.8 °F 93% 29.98 in 5.0 mi SSE 5.8 mph - N/A   Clear
7:30 AM 35.6 °F 29.9 °F 33.8 °F 93% 29.98 in 4.0 mi SSE 6.9 mph - N/A   Clear
7:49 AM 35.6 °F 31.7 °F 33.8 °F 93% 29.98 in 4.0 mi SE 4.6 mph - N/A   Clear
8:10 AM 35.6 °F 32.8 °F 33.8 °F 93% 29.99 in 7.0 mi SSE 3.5 mph - N/A   Clear
8:30 AM 37.4 °F - 35.6 °F 93% 30.00 in 7.0 mi Calm Calm - N/A   Clear
8:50 AM 41.0 °F 39.0 °F 37.4 °F 87% 30.00 in 10.0 mi SE 3.5 mph - N/A   Clear
9:10 AM 41.0 °F 37.1 °F 35.6 °F 81% 30.00 in 10.0 mi SE 5.8 mph - N/A   Clear
9:30 AM 42.8 °F 40.1 °F 37.4 °F 81% 30.01 in 10.0 mi SE 4.6 mph - N/A   Clear
9:50 AM 44.6 °F 42.2 °F 37.4 °F 76% 30.01 in 10.0 mi SE 4.6 mph - N/A   Clear
10:10 AM 48.2 °F - 39.2 °F 71% 30.00 in 10.0 mi SE 5.8 mph - N/A   Clear
10:30 AM 51.8 °F - 41.0 °F 67% 30.00 in 10.0 mi SSE 5.8 mph - N/A   Clear
10:50 AM 51.8 °F - 35.6 °F 54% 30.02 in 10.0 mi Calm Calm - N/A   Clear
11:10 AM 53.6 °F - 35.6 °F 51% 30.02 in 10.0 mi SW 4.6 mph - N/A   Clear
11:30 AM 53.6 °F - 35.6 °F 51% 30.02 in 10.0 mi WSW 4.6 mph - N/A   Clear
11:50 AM 55.4 °F - 35.6 °F 47% 30.00 in 10.0 mi Calm Calm - N/A   Clear
12:10 PM 55.4 °F - 35.6 °F 47% 29.98 in 10.0 mi South 3.5 mph - N/A   Clear
12:30 PM 57.2 °F - 33.8 °F 41% 29.98 in 10.0 mi SE 4.6 mph - N/A   Clear
12:50 PM 59.0 °F - 37.4 °F 45% 29.98 in 10.0 mi ESE 3.5 mph - N/A   Clear
1:10 PM 59.0 °F - 35.6 °F 42% 29.97 in 10.0 mi Calm Calm - N/A   Clear
1:30 PM 59.0 °F - 33.8 °F 39% 29.97 in 10.0 mi North 3.5 mph - N/A   Clear
1:50 PM 60.8 °F - 35.6 °F 39% 29.96 in 10.0 mi Calm Calm - N/A   Clear
2:10 PM 60.8 °F - 33.8 °F 36% 29.96 in 10.0 mi SW 3.5 mph - N/A   Scattered Clouds
2:30 PM 60.8 °F - 39.2 °F 45% 29.95 in 10.0 mi SSE 5.8 mph - N/A   Clear
2:50 PM 60.8 °F - 37.4 °F 42% 29.95 in 10.0 mi SSE 3.5 mph - N/A   Clear
3:11 PM 60.8 °F - 37.4 °F 42% 29.96 in 10.0 mi SSE 3.5 mph - N/A   Clear
3:31 PM 59.0 °F - 41.0 °F 51% 29.95 in 10.0 mi SE 9.2 mph - N/A   Clear
3:51 PM 59.0 °F - 41.0 °F 51% 29.95 in 10.0 mi South 5.8 mph - N/A   Clear
4:11 PM 57.2 °F - 37.4 °F 48% 29.96 in 10.0 mi SSE 3.5 mph - N/A   Clear
4:31 PM 55.4 °F - 39.2 °F 54% 29.96 in 10.0 mi South 8.1 mph - N/A   Clear
4:51 PM 51.8 °F - 37.4 °F 58% 29.96 in 10.0 mi SSE 4.6 mph - N/A   Clear
5:11 PM 50.0 °F - 39.2 °F 66% 29.97 in 10.0 mi SE 6.9 mph - N/A   Clear
5:31 PM 48.2 °F - 39.2 °F 71% 29.98 in 10.0 mi SSE 3.5 mph - N/A   Clear
5:51 PM 46.4 °F - 37.4 °F 71% 29.99 in 10.0 mi Calm Calm - N/A   Clear
6:11 PM 44.6 °F - 37.4 °F 76% 30.00 in 10.0 mi Calm Calm - N/A   Clear
6:31 PM 44.6 °F - 37.4 °F 76% 30.02 in 10.0 mi Calm Calm - N/A   Clear
6:51 PM 42.8 °F - 37.4 °F 81% 30.01 in 10.0 mi Calm Calm - N/A   Clear
7:11 PM 42.8 °F - 35.6 °F 76% 30.02 in 10.0 mi Calm Calm - N/A   Clear
7:31 PM 41.0 °F - 35.6 °F 81% 30.01 in 10.0 mi Calm Calm - N/A   Clear
7:51 PM 41.0 °F - 35.6 °F 81% 30.01 in 10.0 mi Calm Calm - N/A   Clear
8:11 PM 41.0 °F 39.0 °F 35.6 °F 81% 30.01 in 10.0 mi SE 3.5 mph - N/A   Clear
8:31 PM 41.0 °F - 37.4 °F 87% 30.02 in 10.0 mi Calm Calm - N/A   Clear
8:51 PM 39.2 °F - 33.8 °F 81% 30.02 in 10.0 mi Calm Calm - N/A   Clear
9:11 PM 39.2 °F - 35.6 °F 87% 30.02 in 10.0 mi Calm Calm - N/A   Clear
9:31 PM 37.4 °F - 33.8 °F 87% 30.02 in 10.0 mi Calm Calm - N/A   Clear
9:51 PM 41.0 °F - 37.4 °F 87% 30.02 in 10.0 mi Calm Calm - N/A   Clear
10:11 PM 42.8 °F 38.0 °F 37.4 °F 81% 30.02 in 10.0 mi NNE 8.1 mph - N/A   Clear
10:31 PM 42.8 °F 39.3 °F 37.4 °F 81% 30.02 in 10.0 mi NNE 5.8 mph - N/A   Clear
10:51 PM 42.8 °F 38.6 °F 37.4 °F 81% 30.04 in 10.0 mi North 6.9 mph - N/A   Clear
11:11 PM 42.8 °F 40.1 °F 37.4 °F 81% 30.03 in 10.0 mi North 4.6 mph - N/A   Clear
11:31 PM 42.8 °F 39.3 °F 35.6 °F 76% 30.01 in 10.0 mi NE 5.8 mph - N/A   Clear
11:52 PM 41.0 °F - 35.6 °F 81% 30.03 in 10.0 mi Calm Calm - N/A   Clear